[[{"header":{"parameterUnit":"m.s-1","parameterCategory":1,"la1":30.2991,"la2":30.254,"lo1":-89.0895,"lo2":-89.0444,"dy":0.0017,"dx":0.0017,"nx":28,"ny":28,"refTime":"2024-08-01T03:00:00:Z","depth":0,"parameterNumber":2,"parameterNumberName":"U-component_of_WINDS"},"data":[0,0,0,0,0,0,0,0,0,0,0,0,0,0,0,0,0,0,0,0,0,0,0,0,0,0,0,0,0,0,0,0,0,0,0,0,0,0,0,0,0,0,0,0,0,0,0,0,0,0,0,0,0,0,0,0,0,0,2.3161,2.3161,0,2.3241,2.3242,2.3243,2.3221,2.322,2.3218,2.3217,2.3303,2.3307,2.3311,0,0,0,0,0,0,0,0,0,0,0,0,0,2.2992,2.2995,2.316,2.3161,2.3162,2.3241,2.3242,2.3243,2.3222,2.322,2.3218,2.3216,2.3302,2.3306,2.3311,0,0,0,0,0,0,0,0,0,0,0,0,0,2.3068,2.2996,2.316,2.3161,2.3162,2.3241,2.3242,2.3243,2.3222,2.322,2.3217,2.3215,2.33,2.3306,2.3312,2.3395,0,0,2.3329,2.3331,0,0,0,0,0,0,0,0,2.3064,2.3074,2.316,2.3161,2.3162,2.3219,2.3214,2.3294,2.3223,2.3199,2.3217,2.3214,2.3277,2.3285,2.3305,2.3399,2.3403,2.3329,2.3333,2.3335,2.3337,0,0,0,0,0,0,0,2.3058,2.3071,2.3192,2.3161,2.3163,2.3159,2.3167,2.3229,2.3251,2.3201,2.32,2.321,2.3277,2.33,2.3307,2.3404,2.3329,2.3334,2.3338,2.334,2.3571,2.3574,0,0,0,0,0,0,2.3052,2.3066,2.319,2.3195,2.3106,2.3164,2.3173,2.3203,2.325,2.3255,2.3212,2.3208,2.3291,2.33,2.331,2.3411,2.3335,2.3341,2.3344,2.3568,2.3572,2.3575,0,0,0,0,0,0,2.3048,2.3063,2.3187,2.313,2.3146,2.3169,2.3203,2.3206,2.3228,2.3258,2.3262,2.323,2.329,2.3302,2.3374,2.3413,2.3343,2.3348,2.3565,2.3569,2.3573,2.3613,0,0,0,0,0,0,2.3043,2.3062,2.3093,2.3131,2.3149,2.3248,2.3206,2.3209,2.3238,2.3234,2.3276,2.3281,2.3289,2.3365,2.338,2.342,2.3353,2.3562,2.3567,2.3572,2.3608,2.3618,2.3626,0,0,0,0,0,2.3038,2.3102,2.3095,2.311,2.3188,2.325,2.3261,2.3267,2.3241,2.3273,2.3292,2.328,2.3407,2.3373,2.3389,2.3431,2.3559,2.3566,2.3572,2.3604,2.3616,2.3626,0,0,0,0,0,0,2.3069,2.3107,2.3099,2.3178,2.3211,2.3247,2.3287,2.3279,2.3321,2.3316,2.3323,2.3333,2.3407,2.3426,2.3388,2.3515,2.348,2.3489,2.3499,2.3511,2.3519,2.3513,2.3358,0,0,0,0,0,2.3085,2.3131,2.3162,2.3229,2.3246,2.3264,2.3291,2.3293,2.3328,2.3342,2.3367,2.3402,2.345,2.3482,2.3527,2.3611,2.362,2.3649,2.3657,2.3665,2.3673,2.3718,2.3731,2.3595,2.3595,2.3595,0,0,2.3119,2.3145,2.3174,2.3236,2.3261,2.331,2.3276,2.3329,2.3365,2.3351,2.3419,2.3439,2.3479,2.3557,2.3593,2.3576,2.3712,2.3672,2.3678,2.3682,2.3726,2.3739,2.375,2.3599,2.3598,2.3597,0,0,2.3204,2.3229,2.3287,2.3313,2.3352,2.3364,2.3378,2.3415,2.3427,2.3496,2.3486,2.353,2.3613,2.3641,2.3667,2.3764,2.3754,2.3779,2.3826,2.387,2.3881,2.389,2.3924,2.3936,2.3787,2.3787,2.3787,0,2.3242,2.3313,2.3318,2.3371,2.3399,2.3387,2.3446,2.3472,2.3525,2.3544,2.3525,2.3627,2.3654,2.3738,2.3762,2.3783,2.3799,2.3774,2.3878,2.3888,2.3897,2.393,2.3943,2.379,2.379,2.3789,2.3789,0,2.3357,2.3407,2.3449,2.3499,2.3531,2.3587,2.3601,2.3634,2.3633,2.3647,2.3718,2.3749,2.38,2.3821,2.3821,2.3906,2.3894,2.3876,2.3841,2.3913,2.3943,2.3956,2.3794,2.3793,2.3792,2.3791,0,0,2.3464,2.3515,2.3531,2.3553,2.3595,2.3635,2.3691,2.374,2.3768,2.3805,2.3852,2.3922,2.3906,2.3935,2.3939,2.3978,2.4052,2.3956,2.3957,2.3972,2.4146,2.4158,2.4173,2.4046,2.4049,2.4051,2.4143,0,2.3553,2.365,2.3656,2.3744,2.379,2.378,2.3829,2.3861,2.3876,2.3918,2.3935,2.3984,2.396,2.3977,2.4015,2.4035,2.4087,2.4029,2.4091,2.4093,2.4079,2.4189,2.4202,2.4287,2.4155,2.4157,2.4158,0,2.3669,2.3708,2.3801,2.3837,2.3856,2.39,2.3945,2.3986,2.4023,2.4031,2.4063,2.4061,2.412,2.4082,2.4163,2.4123,2.4149,2.4163,2.4166,2.4171,2.4129,2.4196,2.4315,2.4327,2.4177,2.4176,2.4175,0,2.3737,2.3813,2.3878,2.3898,2.3942,2.3972,2.3992,2.4026,2.4055,2.4096,2.4115,2.4162,2.4188,2.4225,2.4236,2.4208,2.4316,2.428,2.4325,2.4325,2.4347,2.4346,2.447,2.4366,2.4366,2.4366,2.4365,0,2.3835,2.3892,2.3909,2.3949,2.4013,2.402,2.4083,2.4101,2.4131,2.4175,2.417,2.4212,2.4225,2.4269,2.4278,2.4343,2.4355,2.4364,2.4365,2.4364,2.4362,2.438,2.4374,2.4369,2.4368,2.4368,2.4367,0,2.3921,2.3935,2.4005,2.404,2.4051,2.4096,2.4127,2.4166,2.418,2.4235,2.4249,2.4272,2.4323,2.4338,2.4401,2.4407,2.4483,2.448,2.447,2.447,2.4513,2.4509,2.4653,2.4672,2.4556,2.4557,2.4558,0,2.3981,2.4025,2.4065,2.4093,2.4114,2.416,2.419,2.4199,2.423,2.4275,2.4308,2.4359,2.44,2.4483,2.4506,2.4553,2.4551,2.4598,2.4558,2.4554,2.455,2.4547,2.4551,2.4605,2.4607,2.4608,2.4608,0,2.4088,2.4093,2.4135,2.418,2.4215,2.4251,2.4285,2.4309,2.4323,2.4359,2.4411,2.4442,2.4506,2.4556,2.4604,2.4626,2.462,2.4621,2.4634,2.4631,2.4623,2.4627,2.449,2.4617,2.4616,2.4616,2.4615,2.4615,2.4162,2.42,2.4234,2.4281,2.4308,2.4341,2.4378,2.4397,2.444,2.4491,2.4495,2.4551,2.4587,2.4651,2.4675,2.472,2.4706,2.4725,2.4729,2.4733,2.4736,2.4617,2.4729,2.4729,2.4729,2.4729,2.4728,0,2.4267,2.4289,2.4332,2.438,2.4417,2.4408,2.4446,2.4478,2.4527,2.456,2.46,2.466,2.4709,2.4736,2.4784,2.4815,2.4814,2.4828,2.4825,2.483,2.4747,2.473,2.4828,2.4828,2.4828,2.4828,2.4828,2.4828,2.4326,2.4389,2.4398,2.4475,2.4496,2.455,2.4573,2.4603,2.463,2.4696,2.4736,2.4753,2.4784,2.4835,2.488,2.4886,2.4904,2.492,2.4925,2.4846,2.4836,2.4826,2.481,2.4924,2.4924,2.5004,2.5005,2.5005]},{"header":{"parameterUnit":"m.s-1","parameterCategory":1,"la1":30.2991,"la2":30.254,"lo1":-89.0895,"lo2":-89.0444,"dy":0.0017,"dx":0.0017,"nx":28,"ny":28,"refTime":"2024-08-01T03:00:00:Z","depth":0,"parameterNumber":3,"parameterNumberName":"V-component_of_WINDS"},"data":[0,0,0,0,0,0,0,0,0,0,0,0,0,0,0,0,0,0,0,0,0,0,0,0,0,0,0,0,0,0,0,0,0,0,0,0,0,0,0,0,0,0,0,0,0,0,0,0,0,0,0,0,0,0,0,0,0,0,4.2009,4.2009,0,4.2051,4.2051,4.2052,4.2044,4.2043,4.2042,4.2042,4.208,4.2082,4.2084,0,0,0,0,0,0,0,0,0,0,0,0,0,4.1915,4.1917,4.2009,4.2009,4.201,4.2051,4.2051,4.2052,4.2044,4.2043,4.2042,4.2041,4.208,4.2082,4.2084,0,0,0,0,0,0,0,0,0,0,0,0,0,4.1956,4.1918,4.2009,4.2011,4.2011,4.2051,4.2051,4.2052,4.2044,4.2043,4.2042,4.2041,4.2079,4.2082,4.2084,4.2122,0,0,4.2092,4.2093,0,0,0,0,0,0,0,0,4.1954,4.196,4.201,4.2011,4.2012,4.2041,4.2033,4.2075,4.2044,4.2032,4.2042,4.204,4.2068,4.2071,4.2081,4.2124,4.2126,4.2092,4.2094,4.2095,4.2096,0,0,0,0,0,0,0,4.1951,4.1958,4.2025,4.2011,4.2012,4.2008,4.2012,4.2041,4.2055,4.2033,4.2032,4.2037,4.2068,4.2079,4.2082,4.2126,4.2092,4.2094,4.2096,4.2097,4.2199,4.22,0,0,0,0,0,0,4.1948,4.1956,4.2024,4.2026,4.198,4.201,4.2015,4.2033,4.2055,4.2057,4.2038,4.2037,4.2075,4.2079,4.2084,4.2127,4.2095,4.2097,4.2099,4.2198,4.2199,4.22,0,0,0,0,0,0,4.1947,4.1955,4.2022,4.1991,4.1999,4.2013,4.2032,4.2034,4.2045,4.2059,4.2061,4.2047,4.2074,4.208,4.2112,4.2129,4.2098,4.2101,4.2196,4.2198,4.22,4.2217,0,0,0,0,0,0,4.1944,4.1954,4.197,4.1991,4.2001,4.2052,4.2033,4.2036,4.205,4.2048,4.2068,4.207,4.2074,4.2108,4.2115,4.2132,4.2103,4.2195,4.2197,4.2199,4.2215,4.2219,4.2222,0,0,0,0,0,4.1941,4.1973,4.1971,4.1979,4.2022,4.2053,4.2058,4.2063,4.2051,4.2066,4.2075,4.207,4.2126,4.2112,4.2119,4.2137,4.2194,4.2196,4.2199,4.2213,4.2218,4.2222,0,0,0,0,0,0,4.1953,4.1976,4.1974,4.2015,4.2032,4.2052,4.2071,4.2068,4.2088,4.2086,4.2089,4.2094,4.2126,4.2135,4.2118,4.2173,4.2158,4.2162,4.2166,4.2171,4.2175,4.2171,4.2105,0,0,0,0,0,4.196,4.1985,4.2004,4.2038,4.2047,4.2057,4.2071,4.2073,4.209,4.2097,4.2109,4.2124,4.2145,4.2159,4.2179,4.2216,4.2219,4.2232,4.2236,4.2239,4.2242,4.2259,4.2264,4.2209,4.2209,4.2209,0,0,4.1976,4.1992,4.2007,4.2041,4.2054,4.2078,4.2064,4.209,4.2106,4.2101,4.2132,4.214,4.2158,4.2192,4.2208,4.22,4.2258,4.2242,4.2244,4.2246,4.2262,4.2267,4.2272,4.221,4.221,4.221,0,0,4.2016,4.2032,4.2061,4.2074,4.2095,4.2102,4.2108,4.2128,4.2134,4.2165,4.216,4.218,4.2217,4.2228,4.2239,4.2281,4.2276,4.2288,4.2307,4.2324,4.2328,4.2332,4.2344,4.2349,4.2291,4.2291,4.2291,0,4.2032,4.2069,4.2075,4.2101,4.2115,4.2112,4.2139,4.2152,4.2177,4.2186,4.2178,4.2222,4.2234,4.2269,4.2279,4.2289,4.2295,4.2285,4.2327,4.2331,4.2335,4.2347,4.2352,4.2292,4.2292,4.2292,4.2292,0,4.2087,4.2112,4.2133,4.2158,4.2174,4.2201,4.2208,4.2223,4.2223,4.223,4.226,4.2274,4.2296,4.2305,4.2305,4.2339,4.2334,4.2327,4.2311,4.2341,4.2352,4.2357,4.2294,4.2293,4.2293,4.2293,0,0,4.2136,4.2163,4.2171,4.2181,4.2203,4.2221,4.2247,4.2269,4.228,4.2298,4.2317,4.2348,4.234,4.2352,4.2354,4.2369,4.2398,4.2359,4.236,4.2364,4.2434,4.2438,4.2443,4.2395,4.2396,4.2397,4.2431,0,4.2176,4.2222,4.2227,4.2267,4.2289,4.2285,4.2307,4.2321,4.2328,4.2345,4.2352,4.2373,4.2363,4.237,4.2385,4.2391,4.2412,4.2389,4.2411,4.2412,4.2405,4.2449,4.2454,4.2486,4.2436,4.2437,4.2437,0,4.2229,4.2248,4.2291,4.2307,4.2317,4.2336,4.2355,4.2373,4.2388,4.2392,4.2405,4.2404,4.2427,4.2412,4.2443,4.2427,4.2436,4.2441,4.2442,4.2443,4.2425,4.2449,4.2497,4.2501,4.2445,4.2444,4.2444,0,4.2258,4.2294,4.2323,4.2333,4.2353,4.2366,4.2375,4.239,4.2402,4.2418,4.2426,4.2444,4.2454,4.2468,4.2471,4.246,4.2501,4.2486,4.2502,4.2502,4.251,4.2509,4.2557,4.2519,4.2519,4.2519,4.2518,0,4.2301,4.2326,4.2336,4.2354,4.2381,4.2386,4.2412,4.242,4.2432,4.245,4.2448,4.2464,4.2468,4.2485,4.2487,4.2511,4.2516,4.2517,4.2517,4.2517,4.2516,4.2521,4.2518,4.252,4.252,4.2519,4.2519,0,4.2337,4.2345,4.2376,4.2393,4.2397,4.2416,4.243,4.2445,4.2451,4.2473,4.2479,4.2487,4.2506,4.2511,4.2534,4.2535,4.2563,4.2562,4.2558,4.2557,4.2572,4.257,4.2624,4.263,4.2589,4.259,4.259,0,4.2363,4.2382,4.2401,4.2413,4.2422,4.2442,4.2454,4.2459,4.2471,4.2489,4.2502,4.2521,4.2536,4.2566,4.2573,4.259,4.2588,4.2606,4.259,4.2588,4.2585,4.2583,4.2584,4.2608,4.2608,4.2609,4.2609,0,4.2408,4.241,4.2429,4.2448,4.2462,4.2478,4.2492,4.2502,4.2508,4.2521,4.2541,4.2553,4.2576,4.2593,4.261,4.2617,4.2613,4.2614,4.2618,4.2617,4.2613,4.2613,4.2564,4.2612,4.2612,4.2612,4.2612,4.2612,4.2438,4.2454,4.2469,4.2488,4.25,4.2513,4.2528,4.2535,4.2552,4.2572,4.2573,4.2594,4.2606,4.2628,4.2636,4.2651,4.2645,4.2652,4.2653,4.2654,4.2654,4.2612,4.2654,4.2654,4.2654,4.2654,4.2654,0,4.248,4.2489,4.2508,4.2528,4.2542,4.2539,4.2554,4.2566,4.2585,4.2597,4.2612,4.2633,4.265,4.2659,4.2675,4.2685,4.2683,4.2689,4.2687,4.2688,4.266,4.2653,4.269,4.269,4.269,4.269,4.269,4.269,4.2504,4.253,4.2534,4.2564,4.2573,4.2594,4.2602,4.2613,4.2623,4.2647,4.2662,4.2667,4.2677,4.2694,4.2708,4.271,4.2715,4.2721,4.2722,4.2694,4.2691,4.2687,4.2681,4.2723,4.2723,4.2749,4.275,4.275]}]]